カタログに戻る

STARLINK-35719

運用中通信VLEO
NORAD 67183·PAYLOAD·🇺🇸 United States

打ち上げ Dec 17, 2025 から Cape Canaveral Space Force Station

Loading…

次のパス (今後24時間)

TLE

最新Source: CelesTrak SupGP

元期: Sep 14, 2026, 20:58 UTC

1 67183C 25303W   26257.87409722 -.00030120  00000+0 -10910-2 0  2576
2 67183  43.0021 322.0284 0001387 272.1691  13.3559 15.27592029    14

AllMySatでSTARLINK-35719をリアルタイム追跡

Download on the App Store